Weather History for KARB - November, 2011

Change the Weather History Date:

Friday, November 18, 2011

  Actual Average Record
Temperature  
Mean Temperature 34 °F -  
Max Temperature 46 °F 46 °F 63 °F (2004)
Min Temperature 21 °F 30 °F 10 °F (2014)
Degree Days  
Heating Degree Days 32    
Moisture  
Dew Point 18 °F    
Average Humidity 56    
Maximum Humidity 82    
Minimum Humidity 28    
Precipitation  
Precipitation 0.00 in - - ()
Sea Level Pressure  
Sea Level Pressure 30.20 in    
Wind  
Wind Speed 8 mph (SSW)    
Max Wind Speed 24 mph    
Max Gust Speed 32 mph    
Visibility 10 miles    
Events      
Averages and records for this station are not official NWS values.
T = Trace of Precipitation, MM = Missing Value Source: NWS Daily Summary

Daily Weather History Graph

Daily Weather History Graph

Search for Another Location

Airport or City:

Trip Planner

Search our weather history database for the weather conditions in past years. The results will help you decide how hot, cold, wet, or windy it might be!

Date:

Astronomy

Nov. 18, 2011 Rise Set
Actual Time 7:28 AM EST 5:10 PM EST
Civil Twilight 6:58 AM EST 5:41 PM EST
Nautical Twilight 6:24 AM EST 6:15 PM EST
Astronomical Twilight 5:51 AM EST 6:48 PM EST
Moon No Moon Rise 1:04 PM EST (11/18)
Length of Visible Light 10h 42m
Length of Day
9h 42m
Waning Gibbous, 49% of the Moon is Illuminated
Nov 18
Waning Gibbous
Nov 25
New
Dec 2
First Quarter
Dec 10
Full
Dec 17
Last Quarter

Hourly Weather History & Observations

Time (EST) Temp. Windchill Dew Point Humidity Pressure Visibility Wind Dir Wind Speed Gust Speed Precip Events Conditions
12:53 AM 21.9 °F 17.2 °F 16.0 °F 78% 30.26 in 10.0 mi SW 3.5 mph - N/A   Clear
1:53 AM 21.0 °F 13.4 °F 15.1 °F 78% 30.27 in 10.0 mi WSW 5.8 mph - N/A   Clear
2:53 AM 23.0 °F 17.0 °F 16.0 °F 74% 30.29 in 10.0 mi WSW 4.6 mph - N/A   Clear
3:53 AM 21.0 °F - 15.1 °F 78% 30.28 in 10.0 mi Calm Calm - N/A   Clear
4:53 AM 21.9 °F 15.7 °F 17.1 °F 82% 30.30 in 10.0 mi SSW 4.6 mph - N/A   Clear
5:53 AM 23.0 °F 17.0 °F 17.1 °F 78% 30.30 in 10.0 mi SSW 4.6 mph - N/A   Clear
6:53 AM 21.9 °F 15.7 °F 17.1 °F 82% 30.30 in 10.0 mi South 4.6 mph - N/A   Clear
7:53 AM 24.1 °F 16.0 °F 18.0 °F 77% 30.30 in 10.0 mi SSW 6.9 mph - N/A   Clear
8:53 AM 27.0 °F 18.7 °F 21.0 °F 78% 30.30 in 10.0 mi SSW 8.1 mph - N/A   Clear
9:53 AM 33.1 °F 24.9 °F 21.0 °F 61% 30.28 in 10.0 mi SSW 10.4 mph - N/A   Clear
10:53 AM 39.0 °F 30.6 °F 17.1 °F 41% 30.27 in 10.0 mi SW 15.0 mph 24.2 mph N/A   Clear
11:53 AM 43.0 °F 33.5 °F 15.1 °F 32% 30.24 in 10.0 mi SW 24.2 mph 32.2 mph N/A   Clear
12:53 PM 46.0 °F 39.3 °F 15.1 °F 29% 30.21 in 10.0 mi SW 16.1 mph 26.5 mph N/A   Clear
1:53 PM 46.0 °F 38.8 °F 14.0 °F 28% 30.17 in 10.0 mi SW 18.4 mph 29.9 mph N/A   Clear
2:53 PM 46.9 °F - 15.1 °F 28% 30.14 in 10.0 mi SSW 18.4 mph 31.1 mph N/A   Clear
3:53 PM 45.0 °F 37.9 °F 17.1 °F 33% 30.12 in 10.0 mi SSW 16.1 mph 28.8 mph N/A   Clear
4:53 PM 43.0 °F 36.0 °F 19.0 °F 38% 30.10 in 10.0 mi South 13.8 mph 23.0 mph N/A   Clear
5:53 PM 42.1 °F 35.2 °F 19.0 °F 40% 30.09 in 10.0 mi South 12.7 mph 23.0 mph N/A   Clear
7:53 PM 41.0 °F 32.8 °F 19.9 °F 43% 30.07 in 10.0 mi South 16.1 mph 23.0 mph N/A   Mostly Cloudy
8:53 PM 39.9 °F 32.1 °F 21.0 °F 47% 30.05 in 10.0 mi South 13.8 mph 21.9 mph N/A   Mostly Cloudy
9:53 PM 39.0 °F 31.0 °F 21.0 °F 49% 30.05 in 10.0 mi SSW 13.8 mph - N/A   Overcast
10:53 PM 39.9 °F 33.9 °F 21.9 °F 49% 30.06 in 10.0 mi SSW 9.2 mph - N/A   Overcast